Terug naar catalogus

STARLINK-5683

ActiefCommunicatieVLEO
NORAD 55452·PAYLOAD·🇺🇸 United States

Gelanceerd Feb 2, 2023 vanaf Cape Canaveral Space Force Station

Loading…

Volgende Passages (komende 24 uur)

TLE

VersSource: CelesTrak SupGP

Epoch: Sep 14, 2026, 22:06 UTC

1 55452C 23015D   26257.92131944 -.00033856  00000+0 -12260-2 0  2573
2 55452  43.0042 340.5029 0002154 277.5441 209.3147 15.27599824    10

Volg STARLINK-5683 in realtime met AllMySat

Download on the App Store